Weather History for Chattanooga, TN

Change the Weather History Date:

Monday, February 24, 2014

  Actual Average Record
Temperature  
Mean Temperature 48 °F 47 °F  
Max Temperature 58 °F 57 °F 77 °F (1890)
Min Temperature 37 °F 36 °F 13 °F (1967)
Degree Days  
Heating Degree Days 17 18  
Month to date heating degree days 484 506  
Since 1 July heating degree days 2695 2551  
Cooling Degree Days 0 0  
Month to date cooling degree days 0 0  
Year to date cooling degree days 0 0  
Moisture  
Dew Point 24 °F    
Average Humidity 45    
Maximum Humidity 70    
Minimum Humidity 20    
Precipitation  
Precipitation 0.00 in 0.18 in 1.90 in (1931)
Month to date precipitation 5.18 4.14  
Year to date precipitation 7.58 9.05  
Snow  
Snow 0.00 in 0.00 in - ()
Month to date snowfall 7.2 0.5  
Since 1 July snowfall 8.4 2.5  
Snow Depth 0.00 in    
Sea Level Pressure  
Sea Level Pressure 30.15 in    
Wind  
Wind Speed 9 mph (NNE)    
Max Wind Speed 20 mph    
Max Gust Speed 23 mph    
Visibility 10 miles    
Events      
T = Trace of Precipitation, MM = Missing Value Source: NWS Daily Summary

Daily Weather History Graph

Daily Weather History Graph

Search for Another Location

Airport:

Trip Planner

Search our weather history database for the weather conditions in past years. The results will help you decide how hot, cold, wet, or windy it might be!

Date:

Astronomy

Feb. 24, 2014 Rise Set
Actual Time 7:16 AM EST 6:32 PM EST
Civil Twilight 6:50 AM EST 6:57 PM EST
Nautical Twilight 6:21 AM EST 7:27 PM EST
Astronomical Twilight 5:52 AM EST 7:56 PM EST
Moon 3:07 AM EST (2/24) 1:39 PM EST (2/24)
Length of Visible Light 12h 06m
Length of Day
11h 15m
Waning Crescent, 28% of the Moon is Illuminated
Feb 24
Waning Crescent
Mar 1
New
Mar 8
First Quarter
Mar 16
Full
Mar 23
Last Quarter

Hourly Weather History & Observations

Time (EST) Temp. Windchill Dew Point Humidity Pressure Visibility Wind Dir Wind Speed Gust Speed Precip Events Conditions
12:53 AM 48.9 °F - 34.0 °F 56% 30.07 in 10.0 mi North 10.4 mph - N/A   Scattered Clouds
1:53 AM 48.0 °F - 34.0 °F 58% 30.07 in 10.0 mi North 11.5 mph - N/A   Mostly Cloudy
2:53 AM 46.9 °F - 35.1 °F 63% 30.08 in 10.0 mi North 16.1 mph - N/A   Overcast
3:53 AM 44.1 °F 37.4 °F 35.1 °F 71% 30.11 in 10.0 mi NNW 13.8 mph - N/A   Clear
4:53 AM 43.0 °F 36.4 °F 34.0 °F 71% 30.13 in 10.0 mi North 12.7 mph - N/A   Clear
5:53 AM 41.0 °F 35.2 °F 32.0 °F 70% 30.14 in 10.0 mi North 9.2 mph - N/A   Clear
6:53 AM 39.9 °F 33.4 °F 30.9 °F 70% 30.17 in 10.0 mi North 10.4 mph - N/A   Clear
7:53 AM 39.0 °F 31.4 °F 27.0 °F 62% 30.20 in 10.0 mi North 12.7 mph - N/A   Clear
8:53 AM 41.0 °F 35.2 °F 25.0 °F 53% 30.22 in 10.0 mi North 9.2 mph - N/A   Clear
9:53 AM 44.1 °F 38.6 °F 25.0 °F 47% 30.22 in 10.0 mi North 10.4 mph - N/A   Clear
10:53 AM 46.0 °F 41.0 °F 25.0 °F 44% 30.23 in 10.0 mi North 10.4 mph - N/A   Partly Cloudy
11:53 AM 48.9 °F - 18.0 °F 29% 30.22 in 10.0 mi NNE 11.5 mph - N/A   Partly Cloudy
12:53 PM 53.1 °F - 17.1 °F 24% 30.19 in 10.0 mi NNE 11.5 mph 17.3 mph N/A   Partly Cloudy
1:53 PM 54.0 °F - 17.1 °F 23% 30.18 in 10.0 mi NNE 12.7 mph 19.6 mph N/A   Partly Cloudy
2:53 PM 55.9 °F - 17.1 °F 22% 30.16 in 10.0 mi NNE 11.5 mph - N/A   Partly Cloudy
3:53 PM 57.0 °F - 17.1 °F 21% 30.16 in 10.0 mi NE 13.8 mph 19.6 mph N/A   Scattered Clouds
4:53 PM 55.9 °F - 16.0 °F 21% 30.14 in 10.0 mi NNE 13.8 mph - N/A   Mostly Cloudy
5:53 PM 54.0 °F - 17.1 °F 23% 30.15 in 10.0 mi NE 8.1 mph - N/A   Mostly Cloudy
6:53 PM 51.1 °F - 16.0 °F 25% 30.14 in 10.0 mi NE 5.8 mph - N/A   Mostly Cloudy
7:53 PM 48.9 °F - 16.0 °F 27% 30.15 in 10.0 mi NNE 4.6 mph - N/A   Mostly Cloudy
8:53 PM 46.9 °F - 17.1 °F 30% 30.15 in 10.0 mi North 3.5 mph - N/A   Mostly Cloudy
9:53 PM 43.0 °F - 25.0 °F 49% 30.14 in 10.0 mi Calm Calm - N/A   Scattered Clouds
10:53 PM 41.0 °F - 25.0 °F 53% 30.14 in 10.0 mi Calm Calm - N/A   Partly Cloudy
11:53 PM 39.0 °F - 25.0 °F 57% 30.13 in 10.0 mi Calm Calm - N/A   Clear